Year,Month,Day,Hour,Minute,Value (Times are PST for windspeed in km/hr)
2018,12,15,00,00,1.70
2018,12,15,00,01,2.30
2018,12,15,00,02,1.10
2018,12,15,00,03,1.80
2018,12,15,00,04,2.00
2018,12,15,00,05,1.50
2018,12,15,00,06,0.80
2018,12,15,00,07,0.00
2018,12,15,00,08,0.50
2018,12,15,00,09,1.00
2018,12,15,00,10,0.80
2018,12,15,00,11,0.40
2018,12,15,00,12,0.00
2018,12,15,00,13,1.40
2018,12,15,00,14,3.40
2018,12,15,00,15,3.90
2018,12,15,00,16,2.00
2018,12,15,00,17,1.40
2018,12,15,00,18,1.70
2018,12,15,00,19,2.30
2018,12,15,00,20,0.40
2018,12,15,00,21,1.10
2018,12,15,00,22,2.20
2018,12,15,00,23,1.40
2018,12,15,00,24,1.60
2018,12,15,00,25,1.40
2018,12,15,00,26,0.40
2018,12,15,00,27,0.40
2018,12,15,00,28,1.40
2018,12,15,00,29,1.90
2018,12,15,00,30,2.10
2018,12,15,00,31,2.00
2018,12,15,00,32,2.50
2018,12,15,00,33,4.00
2018,12,15,00,34,3.20
2018,12,15,00,35,2.30
2018,12,15,00,36,1.20
2018,12,15,00,37,0.10
2018,12,15,00,38,0.10
2018,12,15,00,39,0.10
2018,12,15,00,40,0.00
2018,12,15,00,41,0.00
2018,12,15,00,42,0.10
2018,12,15,00,43,0.80
2018,12,15,00,44,0.00
2018,12,15,00,45,0.00
2018,12,15,00,46,0.00
2018,12,15,00,47,0.00
2018,12,15,00,48,0.00
2018,12,15,00,49,0.00
2018,12,15,00,50,0.80
2018,12,15,00,51,1.60
2018,12,15,00,52,0.00
2018,12,15,00,53,0.00
2018,12,15,00,54,0.00
2018,12,15,00,55,2.10
2018,12,15,00,56,0.60
2018,12,15,00,57,1.10
2018,12,15,00,58,0.80
2018,12,15,00,59,0.00
2018,12,15,01,00,0.00
2018,12,15,01,01,2.60
2018,12,15,01,02,1.20
2018,12,15,01,03,0.00
2018,12,15,01,04,0.00
2018,12,15,01,05,0.20
2018,12,15,01,06,0.00
2018,12,15,01,07,0.00
2018,12,15,01,08,0.00
2018,12,15,01,09,0.00
2018,12,15,01,10,0.00
2018,12,15,01,11,0.00
2018,12,15,01,12,0.00
2018,12,15,01,13,0.00
2018,12,15,01,14,0.00
2018,12,15,01,15,0.00
2018,12,15,01,16,0.00
2018,12,15,01,17,0.00
2018,12,15,01,18,0.00
2018,12,15,01,19,0.00
2018,12,15,01,20,0.00
2018,12,15,01,21,0.00
2018,12,15,01,22,0.00
2018,12,15,01,23,0.00
2018,12,15,01,24,0.00
2018,12,15,01,25,0.00
2018,12,15,01,26,0.00
2018,12,15,01,27,0.00
2018,12,15,01,28,0.20
2018,12,15,01,29,2.30
2018,12,15,01,30,1.30
2018,12,15,01,31,2.00
2018,12,15,01,32,1.30
2018,12,15,01,33,0.40
2018,12,15,01,34,0.40
2018,12,15,01,35,2.70
2018,12,15,01,36,1.30
2018,12,15,01,37,0.10
2018,12,15,01,38,0.00
2018,12,15,01,39,0.40
2018,12,15,01,40,0.20
2018,12,15,01,41,0.10
2018,12,15,01,42,0.00
2018,12,15,01,43,1.20
2018,12,15,01,44,2.00
2018,12,15,01,45,0.30
2018,12,15,01,46,1.60
2018,12,15,01,47,1.00
2018,12,15,01,48,2.10
2018,12,15,01,49,2.60
2018,12,15,01,50,1.00
2018,12,15,01,51,3.60
2018,12,15,01,52,3.60
2018,12,15,01,53,3.60
2018,12,15,01,54,0.70
2018,12,15,01,55,3.50
2018,12,15,01,56,4.90
2018,12,15,01,57,2.00
2018,12,15,01,58,2.80
2018,12,15,01,59,0.10
2018,12,15,02,00,0.00
2018,12,15,02,01,0.00
2018,12,15,02,02,0.00
2018,12,15,02,03,0.00
2018,12,15,02,04,0.00
2018,12,15,02,05,0.10
2018,12,15,02,06,0.00
2018,12,15,02,07,0.00
2018,12,15,02,08,0.00
2018,12,15,02,09,0.00
2018,12,15,02,10,0.00
2018,12,15,02,11,0.00
2018,12,15,02,12,0.00
2018,12,15,02,13,0.00
2018,12,15,02,14,0.00
2018,12,15,02,15,0.00
2018,12,15,02,16,0.00
2018,12,15,02,17,0.00
2018,12,15,02,18,0.00
2018,12,15,02,19,0.00
2018,12,15,02,20,0.00
2018,12,15,02,21,0.00
2018,12,15,02,22,0.00
2018,12,15,02,23,0.00
2018,12,15,02,24,0.00
2018,12,15,02,25,0.00
2018,12,15,02,26,0.00
2018,12,15,02,27,0.00
2018,12,15,02,28,0.00
2018,12,15,02,29,0.00
2018,12,15,02,30,0.00
2018,12,15,02,31,0.00
2018,12,15,02,32,0.00
2018,12,15,02,33,0.00
2018,12,15,02,34,0.00
2018,12,15,02,35,0.00
2018,12,15,02,36,0.00
2018,12,15,02,37,0.00
2018,12,15,02,38,0.00
2018,12,15,02,39,0.00
2018,12,15,02,40,0.00
2018,12,15,02,41,0.00
2018,12,15,02,42,0.00
2018,12,15,02,43,0.00
2018,12,15,02,44,0.00
2018,12,15,02,45,0.00
2018,12,15,02,46,0.00
2018,12,15,02,47,0.00
2018,12,15,02,48,0.00
2018,12,15,02,49,0.00
2018,12,15,02,50,0.00
2018,12,15,02,51,0.00
2018,12,15,02,52,0.00
2018,12,15,02,53,0.00
2018,12,15,02,54,0.00
2018,12,15,02,55,0.00
2018,12,15,02,56,0.00
2018,12,15,02,57,0.00
2018,12,15,02,58,0.00
2018,12,15,02,59,0.00
2018,12,15,03,00,0.00
2018,12,15,03,01,0.00
2018,12,15,03,02,0.00
2018,12,15,03,03,0.00
2018,12,15,03,04,0.00
2018,12,15,03,05,0.00
2018,12,15,03,06,0.00
2018,12,15,03,07,0.00
2018,12,15,03,08,0.00
2018,12,15,03,09,0.00
2018,12,15,03,10,0.00
2018,12,15,03,11,0.00
2018,12,15,03,12,0.00
2018,12,15,03,13,0.00
2018,12,15,03,14,0.00
2018,12,15,03,15,0.00
2018,12,15,03,16,0.00
2018,12,15,03,17,0.00
2018,12,15,03,18,0.00
2018,12,15,03,19,0.00
2018,12,15,03,20,0.00
2018,12,15,03,21,0.00
2018,12,15,03,22,0.00
2018,12,15,03,23,0.00
2018,12,15,03,24,0.00
2018,12,15,03,25,0.00
2018,12,15,03,26,0.00
2018,12,15,03,27,0.00
2018,12,15,03,28,0.00
2018,12,15,03,29,0.00
2018,12,15,03,30,0.00
2018,12,15,03,31,0.00
2018,12,15,03,32,0.00
2018,12,15,03,33,0.00
2018,12,15,03,34,0.00
2018,12,15,03,35,0.00
2018,12,15,03,36,0.00
2018,12,15,03,37,0.00
2018,12,15,03,38,0.00
2018,12,15,03,39,0.00
2018,12,15,03,40,0.00
2018,12,15,03,41,0.00
2018,12,15,03,42,0.00
2018,12,15,03,43,0.00
2018,12,15,03,44,0.00
2018,12,15,03,45,0.00
2018,12,15,03,46,0.00
2018,12,15,03,47,0.00
2018,12,15,03,48,0.00
2018,12,15,03,49,0.00
2018,12,15,03,50,0.00
2018,12,15,03,51,0.00
2018,12,15,03,52,0.00
2018,12,15,03,53,0.00
2018,12,15,03,54,0.00
2018,12,15,03,55,0.00
2018,12,15,03,56,0.00
2018,12,15,03,57,0.00
2018,12,15,03,58,0.00
2018,12,15,03,59,0.00
2018,12,15,04,00,0.00
2018,12,15,04,01,0.00
2018,12,15,04,02,0.00
2018,12,15,04,03,0.00
2018,12,15,04,04,0.00
2018,12,15,04,05,0.00
2018,12,15,04,06,0.00
2018,12,15,04,07,0.00
2018,12,15,04,08,0.00
2018,12,15,04,09,0.00
2018,12,15,04,10,0.00
2018,12,15,04,11,0.00
2018,12,15,04,12,0.00
2018,12,15,04,13,0.00
2018,12,15,04,14,0.00
2018,12,15,04,15,0.00
2018,12,15,04,16,0.10
2018,12,15,04,17,1.50
2018,12,15,04,18,0.70
2018,12,15,04,19,0.00
2018,12,15,04,20,0.00
2018,12,15,04,21,0.00
2018,12,15,04,22,0.00
2018,12,15,04,23,0.00
2018,12,15,04,24,0.00
2018,12,15,04,25,0.00
2018,12,15,04,26,0.00
2018,12,15,04,27,0.00
2018,12,15,04,28,0.00
2018,12,15,04,29,0.00
2018,12,15,04,30,0.00
2018,12,15,04,31,1.40
2018,12,15,04,32,2.50
2018,12,15,04,33,1.50
2018,12,15,04,34,0.40
2018,12,15,04,35,0.00
2018,12,15,04,36,0.00
2018,12,15,04,37,0.00
2018,12,15,04,38,0.00
2018,12,15,04,39,0.00
2018,12,15,04,40,5.40
2018,12,15,04,41,3.00
2018,12,15,04,42,3.20
2018,12,15,04,43,2.30
2018,12,15,04,44,6.40
2018,12,15,04,45,4.00
2018,12,15,04,46,0.50
2018,12,15,04,47,5.30
2018,12,15,04,48,4.30
2018,12,15,04,49,3.40
2018,12,15,04,50,1.00
2018,12,15,04,51,0.10
2018,12,15,04,52,0.50
2018,12,15,04,53,2.60
2018,12,15,04,54,0.40
2018,12,15,04,55,1.10
2018,12,15,04,56,0.30
2018,12,15,04,57,0.00
2018,12,15,04,58,0.00
2018,12,15,04,59,0.00
2018,12,15,05,00,0.00
2018,12,15,05,01,0.00
2018,12,15,05,02,0.00
2018,12,15,05,03,0.00
2018,12,15,05,04,0.00
2018,12,15,05,05,0.00
2018,12,15,05,06,0.00
2018,12,15,05,07,0.00
2018,12,15,05,08,0.00
2018,12,15,05,09,0.00
2018,12,15,05,10,0.90
2018,12,15,05,11,0.00
2018,12,15,05,12,0.20
2018,12,15,05,13,0.20
2018,12,15,05,14,0.10
2018,12,15,05,15,0.00
2018,12,15,05,16,0.00
2018,12,15,05,17,1.50
2018,12,15,05,18,1.50
2018,12,15,05,19,3.50
2018,12,15,05,20,2.50
2018,12,15,05,21,6.40
2018,12,15,05,22,4.00
2018,12,15,05,23,0.00
2018,12,15,05,24,0.10
2018,12,15,05,25,4.10
2018,12,15,05,26,7.20
2018,12,15,05,27,1.50
2018,12,15,05,28,2.10
2018,12,15,05,29,4.20
2018,12,15,05,30,1.90
2018,12,15,05,31,4.50
2018,12,15,05,32,1.50
2018,12,15,05,33,4.60
2018,12,15,05,34,8.30
2018,12,15,05,35,9.70
2018,12,15,05,36,9.40
2018,12,15,05,37,7.00
2018,12,15,05,38,12.60
2018,12,15,05,39,9.30
2018,12,15,05,40,4.80
2018,12,15,05,41,5.80
2018,12,15,05,42,6.50
2018,12,15,05,43,8.30
2018,12,15,05,44,6.40
2018,12,15,05,45,9.60
2018,12,15,05,46,9.60
2018,12,15,05,47,9.60
2018,12,15,05,48,9.60
2018,12,15,05,49,9.60
2018,12,15,05,50,9.60
2018,12,15,05,51,9.60
2018,12,15,05,52,9.00
2018,12,15,05,53,8.30
2018,12,15,05,54,7.70
2018,12,15,05,55,5.20
2018,12,15,05,56,6.20
2018,12,15,05,57,3.20
2018,12,15,05,58,4.20
2018,12,15,05,59,4.70
2018,12,15,06,00,5.20
2018,12,15,06,01,4.00
2018,12,15,06,02,5.10
2018,12,15,06,03,3.90
2018,12,15,06,04,3.00
2018,12,15,06,05,5.40
2018,12,15,06,06,7.10
2018,12,15,06,07,6.30
2018,12,15,06,08,5.70
2018,12,15,06,09,7.80
2018,12,15,06,10,7.30
2018,12,15,06,11,9.30
2018,12,15,06,12,11.30
2018,12,15,06,13,5.90
2018,12,15,06,14,8.30
2018,12,15,06,15,7.10
2018,12,15,06,16,7.70
2018,12,15,06,17,7.70
2018,12,15,06,18,6.00
2018,12,15,06,19,7.70
2018,12,15,06,20,9.80
2018,12,15,06,21,8.20
2018,12,15,06,22,6.30
2018,12,15,06,23,5.70
2018,12,15,06,24,5.40
2018,12,15,06,25,8.10
2018,12,15,06,26,10.60
2018,12,15,06,27,9.50
2018,12,15,06,28,7.90
2018,12,15,06,29,7.60
2018,12,15,06,30,3.50
2018,12,15,06,31,7.20
2018,12,15,06,32,9.40
2018,12,15,06,33,9.10
2018,12,15,06,34,7.30
2018,12,15,06,35,7.30
2018,12,15,06,36,8.10
2018,12,15,06,37,7.90
2018,12,15,06,38,7.40
2018,12,15,06,39,8.30
2018,12,15,06,40,7.90
2018,12,15,06,41,6.80
2018,12,15,06,42,9.60
2018,12,15,06,43,8.20
2018,12,15,06,44,7.40
2018,12,15,06,45,8.00
2018,12,15,06,46,7.40
2018,12,15,06,47,7.00
2018,12,15,06,48,6.80
2018,12,15,06,49,6.20
2018,12,15,06,50,7.00
2018,12,15,06,51,8.60
2018,12,15,06,52,8.30
2018,12,15,06,53,6.30
2018,12,15,06,54,9.40
2018,12,15,06,55,10.60
2018,12,15,06,56,9.20
2018,12,15,06,57,8.70
2018,12,15,06,58,6.30
2018,12,15,06,59,8.50
2018,12,15,07,00,10.30
2018,12,15,07,01,10.40
2018,12,15,07,02,11.00
2018,12,15,07,03,8.60
2018,12,15,07,04,9.10
2018,12,15,07,05,8.00
2018,12,15,07,06,5.30
2018,12,15,07,07,5.40
2018,12,15,07,08,6.30
2018,12,15,07,09,11.20
2018,12,15,07,10,9.40
2018,12,15,07,11,11.70
2018,12,15,07,12,10.40
2018,12,15,07,13,9.80
2018,12,15,07,14,9.10
2018,12,15,07,15,10.00
2018,12,15,07,16,10.80
2018,12,15,07,17,14.10
2018,12,15,07,18,8.60
2018,12,15,07,19,6.00
2018,12,15,07,20,9.80
2018,12,15,07,21,7.30
2018,12,15,07,22,10.80
2018,12,15,07,23,11.70
2018,12,15,07,24,9.90
2018,12,15,07,25,7.60
2018,12,15,07,26,11.20
2018,12,15,07,27,12.00
2018,12,15,07,28,10.40
2018,12,15,07,29,8.60
2018,12,15,07,30,8.60
2018,12,15,07,31,8.30
2018,12,15,07,32,9.10
2018,12,15,07,33,8.80
2018,12,15,07,34,6.90
2018,12,15,07,35,8.50
2018,12,15,07,36,7.00
2018,12,15,07,37,7.80
2018,12,15,07,38,6.20
2018,12,15,07,39,7.00
2018,12,15,07,40,7.30
2018,12,15,07,41,6.60
2018,12,15,07,42,9.40
2018,12,15,07,43,7.50
2018,12,15,07,44,10.10
2018,12,15,07,45,9.40
2018,12,15,07,46,7.90
2018,12,15,07,47,8.50
2018,12,15,07,48,6.70
2018,12,15,07,49,7.30
2018,12,15,07,50,7.00
2018,12,15,07,51,7.30
2018,12,15,07,52,6.10
2018,12,15,07,53,6.30
2018,12,15,07,54,6.70
2018,12,15,07,55,8.60
2018,12,15,07,56,8.60
2018,12,15,07,57,3.80
2018,12,15,07,58,7.10
2018,12,15,07,59,10.30
2018,12,15,08,00,6.90
2018,12,15,08,01,6.40
2018,12,15,08,02,6.70
2018,12,15,08,03,8.90
2018,12,15,08,04,6.00
2018,12,15,08,05,7.20
2018,12,15,08,06,11.80
2018,12,15,08,07,8.80
2018,12,15,08,08,13.80
2018,12,15,08,09,10.60
2018,12,15,08,10,10.40
2018,12,15,08,11,10.70
2018,12,15,08,12,8.40
2018,12,15,08,13,10.10
2018,12,15,08,14,9.40
2018,12,15,08,15,10.20
2018,12,15,08,16,7.50
2018,12,15,08,17,7.80
2018,12,15,08,18,7.60
2018,12,15,08,19,9.60
2018,12,15,08,20,11.40
2018,12,15,08,21,8.50
2018,12,15,08,22,6.90
2018,12,15,08,23,8.80
2018,12,15,08,24,7.60
2018,12,15,08,25,9.00
2018,12,15,08,26,8.40
2018,12,15,08,27,7.80
2018,12,15,08,28,10.80
2018,12,15,08,29,8.70
2018,12,15,08,30,6.90
2018,12,15,08,31,7.20
2018,12,15,08,32,7.60
2018,12,15,08,33,6.50
2018,12,15,08,34,8.20
2018,12,15,08,35,7.30
2018,12,15,08,36,8.80
2018,12,15,08,37,7.20
2018,12,15,08,38,7.00
2018,12,15,08,39,5.70
2018,12,15,08,40,7.90
2018,12,15,08,41,10.10
2018,12,15,08,42,10.10
2018,12,15,08,43,7.00
2018,12,15,08,44,8.50
2018,12,15,08,45,8.60
2018,12,15,08,46,6.60
2018,12,15,08,47,3.50
2018,12,15,08,48,2.70
2018,12,15,08,49,3.00
2018,12,15,08,50,3.30
2018,12,15,08,51,8.70
2018,12,15,08,52,8.70
2018,12,15,08,53,7.10
2018,12,15,08,54,7.20
2018,12,15,08,55,6.60
2018,12,15,08,56,4.90
2018,12,15,08,57,3.70
2018,12,15,08,58,3.60
2018,12,15,08,59,2.40
2018,12,15,09,00,6.00
2018,12,15,09,01,10.60
2018,12,15,09,02,6.40
2018,12,15,09,03,9.40
2018,12,15,09,04,13.50
2018,12,15,09,05,12.50
2018,12,15,09,06,11.10
2018,12,15,09,07,14.10
2018,12,15,09,08,13.00
2018,12,15,09,09,9.40
2018,12,15,09,10,14.10
2018,12,15,09,11,13.70
2018,12,15,09,12,11.40
2018,12,15,09,13,10.10
2018,12,15,09,14,9.70
2018,12,15,09,15,13.60
2018,12,15,09,16,12.20
2018,12,15,09,17,7.90
2018,12,15,09,18,11.00
2018,12,15,09,19,8.30
2018,12,15,09,20,13.30
2018,12,15,09,21,10.00
2018,12,15,09,22,16.50
2018,12,15,09,23,17.80
2018,12,15,09,24,19.80
2018,12,15,09,25,21.00
2018,12,15,09,26,13.80
2018,12,15,09,27,18.70
2018,12,15,09,28,12.20
2018,12,15,09,29,15.10
2018,12,15,09,30,14.50
2018,12,15,09,31,13.40
2018,12,15,09,32,12.80
2018,12,15,09,33,13.20
2018,12,15,09,34,14.00
2018,12,15,09,35,16.90
2018,12,15,09,36,14.90
2018,12,15,09,37,19.40
2018,12,15,09,38,13.10
2018,12,15,09,39,12.40
2018,12,15,09,40,18.70
2018,12,15,09,41,14.80
2018,12,15,09,42,14.40
2018,12,15,09,43,17.80
2018,12,15,09,44,15.70
2018,12,15,09,45,13.50
2018,12,15,09,46,7.40
2018,12,15,09,47,5.40
2018,12,15,09,48,9.70
2018,12,15,09,49,10.70
2018,12,15,09,50,6.70
2018,12,15,09,51,6.20
2018,12,15,09,52,15.00
2018,12,15,09,53,8.90
2018,12,15,09,54,9.90
2018,12,15,09,55,12.20
2018,12,15,09,56,15.90
2018,12,15,09,57,13.50
2018,12,15,09,58,6.60
2018,12,15,09,59,13.30
2018,12,15,10,00,17.80
2018,12,15,10,01,13.50
2018,12,15,10,02,14.50
2018,12,15,10,03,9.40
2018,12,15,10,04,16.50
2018,12,15,10,05,11.30
2018,12,15,10,06,13.40
2018,12,15,10,07,19.20
2018,12,15,10,08,21.30
2018,12,15,10,09,13.90
2018,12,15,10,10,11.10
2018,12,15,10,11,14.00
2018,12,15,10,12,15.80
2018,12,15,10,13,15.30
2018,12,15,10,14,16.00
2018,12,15,10,15,12.60
2018,12,15,10,16,15.60
2018,12,15,10,17,16.00
2018,12,15,10,18,17.10
2018,12,15,10,19,12.60
2018,12,15,10,20,11.30
2018,12,15,10,21,11.80
2018,12,15,10,22,12.30
2018,12,15,10,23,15.30
2018,12,15,10,24,19.40
2018,12,15,10,25,17.60
2018,12,15,10,26,18.40
2018,12,15,10,27,13.40
2018,12,15,10,28,16.60
2018,12,15,10,29,19.10
2018,12,15,10,30,11.40
2018,12,15,10,31,14.60
2018,12,15,10,32,11.60
2018,12,15,10,33,13.50
2018,12,15,10,34,15.90
2018,12,15,10,35,13.00
2018,12,15,10,36,17.90
2018,12,15,10,37,18.50
2018,12,15,10,38,16.00
2018,12,15,10,39,20.30
2018,12,15,10,40,16.00
2018,12,15,10,41,16.50
2018,12,15,10,42,21.70
2018,12,15,10,43,18.50
2018,12,15,10,44,25.00
2018,12,15,10,45,21.40
2018,12,15,10,46,15.40
2018,12,15,10,47,15.00
2018,12,15,10,48,19.00
2018,12,15,10,49,26.30
2018,12,15,10,50,14.90
2018,12,15,10,51,8.20
2018,12,15,10,52,13.20
2018,12,15,10,53,16.80
2018,12,15,10,54,12.30
2018,12,15,10,55,20.40
2018,12,15,10,56,21.70
2018,12,15,10,57,14.50
2018,12,15,10,58,21.90
2018,12,15,10,59,16.30
2018,12,15,11,00,14.70
2018,12,15,11,01,9.80
2018,12,15,11,02,16.10
2018,12,15,11,03,10.80
2018,12,15,11,04,12.20
2018,12,15,11,05,18.40
2018,12,15,11,06,17.60
2018,12,15,11,07,12.90
2018,12,15,11,08,10.70
2018,12,15,11,09,15.10
2018,12,15,11,10,17.40
2018,12,15,11,11,16.90
2018,12,15,11,12,13.60
2018,12,15,11,13,13.30
2018,12,15,11,14,17.20
2018,12,15,11,15,10.00
2018,12,15,11,16,11.30
2018,12,15,11,17,18.40
2018,12,15,11,18,18.20
2018,12,15,11,19,8.20
2018,12,15,11,20,11.00
2018,12,15,11,21,16.50
2018,12,15,11,22,10.40
2018,12,15,11,23,15.70
2018,12,15,11,24,10.90
2018,12,15,11,25,12.30
2018,12,15,11,26,12.40
2018,12,15,11,27,10.70
2018,12,15,11,28,19.80
2018,12,15,11,29,23.40
2018,12,15,11,30,15.50
2018,12,15,11,31,16.30
2018,12,15,11,32,20.60
2018,12,15,11,33,17.30
2018,12,15,11,34,23.30
2018,12,15,11,35,12.10
2018,12,15,11,36,22.50
2018,12,15,11,37,14.80
2018,12,15,11,38,16.50
2018,12,15,11,39,10.90
2018,12,15,11,40,15.50
2018,12,15,11,41,13.60
2018,12,15,11,42,19.30
2018,12,15,11,43,26.00
2018,12,15,11,44,20.90
2018,12,15,11,45,16.50
2018,12,15,11,46,28.30
2018,12,15,11,47,22.80
2018,12,15,11,48,21.80
2018,12,15,11,49,27.70
2018,12,15,11,50,21.20
2018,12,15,11,51,24.70
2018,12,15,11,52,18.00
2018,12,15,11,53,19.40
2018,12,15,11,54,25.80
2018,12,15,11,55,22.50
2018,12,15,11,56,22.90
2018,12,15,11,57,33.10
2018,12,15,11,58,30.00
2018,12,15,11,59,22.50
2018,12,15,12,00,15.10
2018,12,15,12,01,16.60
2018,12,15,12,02,17.60
2018,12,15,12,03,18.10
2018,12,15,12,04,21.10
2018,12,15,12,05,13.40
2018,12,15,12,06,22.90
2018,12,15,12,07,19.70
2018,12,15,12,08,17.50
2018,12,15,12,09,19.50
2018,12,15,12,10,18.20
2018,12,15,12,11,21.50
2018,12,15,12,12,21.20
2018,12,15,12,13,24.40
2018,12,15,12,14,23.80
2018,12,15,12,15,17.90
2018,12,15,12,16,20.70
2018,12,15,12,17,16.60
2018,12,15,12,18,18.10
2018,12,15,12,19,21.50
2018,12,15,12,20,29.30
2018,12,15,12,21,23.70
2018,12,15,12,22,19.30
2018,12,15,12,23,23.70
2018,12,15,12,24,32.20
2018,12,15,12,25,26.20
2018,12,15,12,26,22.30
2018,12,15,12,27,24.70
2018,12,15,12,28,14.40
2018,12,15,12,29,21.20
2018,12,15,12,30,23.80
2018,12,15,12,31,18.40
2018,12,15,12,32,19.40
2018,12,15,12,33,19.70
2018,12,15,12,34,17.30
2018,12,15,12,35,20.20
2018,12,15,12,36,27.20
2018,12,15,12,37,24.50
2018,12,15,12,38,17.10
2018,12,15,12,39,24.40
2018,12,15,12,40,23.10
2018,12,15,12,41,23.00
2018,12,15,12,42,23.80
2018,12,15,12,43,19.20
2018,12,15,12,44,21.40
2018,12,15,12,45,26.30
2018,12,15,12,46,22.40
2018,12,15,12,47,18.50
2018,12,15,12,48,23.70
2018,12,15,12,49,23.40
2018,12,15,12,50,28.10
2018,12,15,12,51,25.30
2018,12,15,12,52,28.50
2018,12,15,12,53,17.90
2018,12,15,12,54,23.70
2018,12,15,12,55,16.20
2018,12,15,12,56,18.40
2018,12,15,12,57,18.00
2018,12,15,12,58,21.40
2018,12,15,12,59,21.30
2018,12,15,13,00,16.90
2018,12,15,13,01,15.80
2018,12,15,13,02,24.10
2018,12,15,13,03,16.70
2018,12,15,13,04,22.10
2018,12,15,13,05,19.10
2018,12,15,13,06,22.60
2018,12,15,13,07,23.60
2018,12,15,13,08,30.60
2018,12,15,13,09,22.90
2018,12,15,13,10,20.50
2018,12,15,13,11,24.50
2018,12,15,13,12,20.30
2018,12,15,13,13,18.90
2018,12,15,13,14,20.30
2018,12,15,13,15,20.00
2018,12,15,13,16,21.00
2018,12,15,13,17,20.70
2018,12,15,13,18,21.60
2018,12,15,13,19,19.30
2018,12,15,13,20,27.10
2018,12,15,13,21,19.40
2018,12,15,13,22,21.90
2018,12,15,13,23,23.50
2018,12,15,13,24,20.70
2018,12,15,13,25,26.20
2018,12,15,13,26,29.60
2018,12,15,13,27,22.60
2018,12,15,13,28,23.50
2018,12,15,13,29,22.30
2018,12,15,13,30,16.00
2018,12,15,13,31,28.00
2018,12,15,13,32,14.40
2018,12,15,13,33,22.00
2018,12,15,13,34,19.10
2018,12,15,13,35,20.10
2018,12,15,13,36,20.30
2018,12,15,13,37,18.70
2018,12,15,13,38,17.80
2018,12,15,13,39,25.90
2018,12,15,13,40,21.50
2018,12,15,13,41,26.30
2018,12,15,13,42,26.90
2018,12,15,13,43,25.40
2018,12,15,13,44,19.60
2018,12,15,13,45,21.30
2018,12,15,13,46,26.10
2018,12,15,13,47,23.80
2018,12,15,13,48,20.60
2018,12,15,13,49,19.50
2018,12,15,13,50,22.40
2018,12,15,13,51,28.70
2018,12,15,13,52,23.40
2018,12,15,13,53,24.40
2018,12,15,13,54,26.60
2018,12,15,13,55,19.00
2018,12,15,13,56,26.50
2018,12,15,13,57,21.60
2018,12,15,13,58,21.40
2018,12,15,13,59,22.90
2018,12,15,14,00,26.50
2018,12,15,14,01,25.30
2018,12,15,14,02,22.40
2018,12,15,14,03,28.60
2018,12,15,14,04,29.50
2018,12,15,14,05,29.60
2018,12,15,14,06,24.60
2018,12,15,14,07,26.00
2018,12,15,14,08,25.40
2018,12,15,14,09,25.20
2018,12,15,14,10,14.40
2018,12,15,14,11,22.70
2018,12,15,14,12,26.40
2018,12,15,14,13,27.70
2018,12,15,14,14,32.60
2018,12,15,14,15,27.10
2018,12,15,14,16,20.10
2018,12,15,14,17,18.70
2018,12,15,14,18,23.20
2018,12,15,14,19,18.50
2018,12,15,14,20,17.50
2018,12,15,14,21,18.30
2018,12,15,14,22,18.70
2018,12,15,14,23,24.60
2018,12,15,14,24,26.10
2018,12,15,14,25,25.90
2018,12,15,14,26,19.10
2018,12,15,14,27,25.20
2018,12,15,14,28,17.90
2018,12,15,14,29,19.60
2018,12,15,14,30,20.90
2018,12,15,14,31,21.50
2018,12,15,14,32,16.40
2018,12,15,14,33,16.70
2018,12,15,14,34,17.40
2018,12,15,14,35,17.20
2018,12,15,14,36,16.70
2018,12,15,14,37,29.30
2018,12,15,14,38,25.30
2018,12,15,14,39,19.20
2018,12,15,14,40,21.70
2018,12,15,14,41,19.50
2018,12,15,14,42,17.10
2018,12,15,14,43,21.00
2018,12,15,14,44,23.00
2018,12,15,14,45,22.70
2018,12,15,14,46,17.20
2018,12,15,14,47,26.00
2018,12,15,14,48,17.10
2018,12,15,14,49,16.10
2018,12,15,14,50,17.90
2018,12,15,14,51,17.00
2018,12,15,14,52,15.20
2018,12,15,14,53,20.10
2018,12,15,14,54,23.80
2018,12,15,14,55,28.00
2018,12,15,14,56,29.30
2018,12,15,14,57,31.40
2018,12,15,14,58,18.20
2018,12,15,14,59,20.40
2018,12,15,15,00,26.20
2018,12,15,15,01,16.60
2018,12,15,15,02,24.80
2018,12,15,15,03,22.90
2018,12,15,15,04,20.60
2018,12,15,15,05,14.70
2018,12,15,15,06,20.80
2018,12,15,15,07,22.30
2018,12,15,15,08,29.30
2018,12,15,15,09,31.90
2018,12,15,15,10,20.20
2018,12,15,15,11,22.00
2018,12,15,15,12,27.50
2018,12,15,15,13,25.80
2018,12,15,15,14,25.60
2018,12,15,15,15,22.80
2018,12,15,15,16,26.30
2018,12,15,15,17,24.60
2018,12,15,15,18,23.50
2018,12,15,15,19,28.50
2018,12,15,15,20,21.90
2018,12,15,15,21,28.20
2018,12,15,15,22,25.90
2018,12,15,15,23,21.30
2018,12,15,15,24,26.70
2018,12,15,15,25,16.20
2018,12,15,15,26,26.20
2018,12,15,15,27,22.40
2018,12,15,15,28,25.00
2018,12,15,15,29,31.20
2018,12,15,15,30,21.30
2018,12,15,15,31,19.90
2018,12,15,15,32,24.00
2018,12,15,15,33,21.30
2018,12,15,15,34,26.80
2018,12,15,15,35,21.70
2018,12,15,15,36,19.10
2018,12,15,15,37,21.00
2018,12,15,15,38,18.30
2018,12,15,15,39,27.00
2018,12,15,15,40,29.10
2018,12,15,15,41,24.90
2018,12,15,15,42,18.50
2018,12,15,15,43,26.10
2018,12,15,15,44,21.60
2018,12,15,15,45,24.80
2018,12,15,15,46,22.80
2018,12,15,15,47,22.70
2018,12,15,15,48,18.80
2018,12,15,15,49,24.00
2018,12,15,15,50,22.90
2018,12,15,15,51,27.50
2018,12,15,15,52,25.50
2018,12,15,15,53,16.60
2018,12,15,15,54,17.00
2018,12,15,15,55,16.60
2018,12,15,15,56,17.60
2018,12,15,15,57,20.30
2018,12,15,15,58,22.30
2018,12,15,15,59,22.10
2018,12,15,16,00,27.30
2018,12,15,16,01,30.00
2018,12,15,16,02,25.30
2018,12,15,16,03,25.30
2018,12,15,16,04,23.30
2018,12,15,16,05,17.50
2018,12,15,16,06,18.70
2018,12,15,16,07,22.20
2018,12,15,16,08,24.30
2018,12,15,16,09,15.80
2018,12,15,16,10,20.40
2018,12,15,16,11,26.00
2018,12,15,16,12,19.90
2018,12,15,16,13,18.80
2018,12,15,16,14,22.60
2018,12,15,16,15,19.20
2018,12,15,16,16,25.80
2018,12,15,16,17,25.70
2018,12,15,16,18,23.90
2018,12,15,16,19,21.90
2018,12,15,16,20,23.40
2018,12,15,16,21,18.20
2018,12,15,16,22,21.00
2018,12,15,16,23,22.90
2018,12,15,16,24,29.20
2018,12,15,16,25,27.40
2018,12,15,16,26,33.00
2018,12,15,16,27,27.40
2018,12,15,16,28,22.90
2018,12,15,16,29,24.00
2018,12,15,16,30,21.50
2018,12,15,16,31,31.10
2018,12,15,16,32,28.00
2018,12,15,16,33,29.70
2018,12,15,16,34,23.40
2018,12,15,16,35,21.20
2018,12,15,16,36,13.50
2018,12,15,16,37,15.50
2018,12,15,16,38,20.10
2018,12,15,16,39,25.20
2018,12,15,16,40,19.50
2018,12,15,16,41,28.90
2018,12,15,16,42,19.90
2018,12,15,16,43,22.60
2018,12,15,16,44,20.80
2018,12,15,16,45,20.60
2018,12,15,16,46,25.00
2018,12,15,16,47,26.00
2018,12,15,16,48,26.60
2018,12,15,16,49,19.00
2018,12,15,16,50,32.20
2018,12,15,16,51,17.20
2018,12,15,16,52,21.70
2018,12,15,16,53,22.50
2018,12,15,16,54,21.80
2018,12,15,16,55,24.70
2018,12,15,16,56,22.50
2018,12,15,16,57,34.10
2018,12,15,16,58,25.50
2018,12,15,16,59,28.40
2018,12,15,17,00,19.70
2018,12,15,17,01,16.00
2018,12,15,17,02,23.60
2018,12,15,17,03,28.40
2018,12,15,17,04,21.20
2018,12,15,17,05,20.60
2018,12,15,17,06,30.70
2018,12,15,17,07,29.30
2018,12,15,17,08,21.60
2018,12,15,17,09,22.20
2018,12,15,17,10,21.10
2018,12,15,17,11,18.10
2018,12,15,17,12,20.00
2018,12,15,17,13,24.70
2018,12,15,17,14,14.10
2018,12,15,17,15,20.20
2018,12,15,17,16,23.60
2018,12,15,17,17,28.60
2018,12,15,17,18,22.50
2018,12,15,17,19,22.30
2018,12,15,17,20,24.70
2018,12,15,17,21,22.10
2018,12,15,17,22,23.80
2018,12,15,17,23,21.70
2018,12,15,17,24,23.80
2018,12,15,17,25,21.60
2018,12,15,17,26,27.50
2018,12,15,17,27,22.80
2018,12,15,17,28,24.40
2018,12,15,17,29,20.30
2018,12,15,17,30,23.00
2018,12,15,17,31,29.40
2018,12,15,17,32,24.20
2018,12,15,17,33,19.30
2018,12,15,17,34,20.70
2018,12,15,17,35,16.70
2018,12,15,17,36,26.80
2018,12,15,17,37,26.80
2018,12,15,17,38,23.70
2018,12,15,17,39,19.00
2018,12,15,17,40,30.60
2018,12,15,17,41,28.50
2018,12,15,17,42,24.40